Tucson Davis Monthan, AZ

10:27 PM MST on July 24, 2017 (GMT -0700)
Davis-Monthan Air Force Base

Weather History for KDMA - August, 2014

Change the Weather History Date:

Monday, August 11, 2014

  Actual Average Record
Temperature  
Mean Temperature 88 °F -  
Max Temperature 98 °F 95 °F 108 °F (1993)
Min Temperature 78 °F 72 °F 67 °F (1949)
Cooling Degree Days 23    
Growing Degree Days 38 (Base 50)    
Moisture  
Dew Point 59 °F    
Average Humidity 38    
Maximum Humidity 60    
Minimum Humidity 25    
Precipitation  
Precipitation 0.00 in - - ()
Sea Level Pressure  
Sea Level Pressure 29.88 in    
Wind  
Wind Speed 11 mph (East)    
Max Wind Speed 18 mph    
Max Gust Speed 30 mph    
Visibility 10 miles    
Events Thunderstorm    
Averages and records for this station are not official NWS values.
T = Trace of Precipitation, MM = Missing Value Source: NWS Daily Summary

Daily Weather History Graph

Daily Weather History Graph

Search for Another Location

Airport or City:

Trip Planner

Search our weather history database for the weather conditions in past years. The results will help you decide how hot, cold, wet, or windy it might be!

Date:

Astronomy

Aug. 11, 2014 Rise Set
Actual Time 5:45 AM MST 7:11 PM MST
Civil Twilight 5:19 AM MST 7:37 PM MST
Nautical Twilight 4:48 AM MST 8:08 PM MST
Astronomical Twilight 4:15 AM MST 8:41 PM MST
Moon 7:51 PM MST (8/11) 6:47 AM MST (8/11)
Length of Visible Light 14h 18m
Length of Day
13h 26m
Full, 98% of the Moon is Illuminated
Aug 11
Full
Aug 17
Last Quarter
Aug 25
New
Sep 2
First Quarter
Sep 8
Full

Hourly Weather History & Observations

Time (MST) Temp. Heat Index Dew Point Humidity Pressure Visibility Wind Dir Wind Speed Gust Speed Precip Events Conditions
12:58 AM 82.6 °F 83.1 °F 61.3 °F 48% 29.90 in 10.0 mi SE 18.4 mph - N/A   Scattered Clouds
1:58 AM 80.4 °F 81.7 °F 62.8 °F 55% 29.88 in 10.0 mi ESE 10.4 mph - N/A   Scattered Clouds
2:58 AM 80.4 °F 81.3 °F 60.6 °F 51% 29.88 in 10.0 mi SE 8.1 mph - N/A   Mostly Cloudy
3:58 AM 81.0 °F 81.7 °F 60.8 °F 50% 29.86 in 10.0 mi ESE 6.9 mph - N/A   Mostly Cloudy
4:58 AM 78.8 °F - 63.7 °F 60% 29.86 in 10.0 mi ESE 9.2 mph - N/A   Scattered Clouds
5:58 AM 78.1 °F - 63.0 °F 60% 29.87 in 10.0 mi ESE 8.1 mph - N/A   Scattered Clouds
6:58 AM 79.3 °F - 62.1 °F 55% 29.90 in 10.0 mi SE 8.1 mph - N/A   Clear
7:58 AM 84.4 °F 84.8 °F 61.3 °F 46% 29.90 in 10.0 mi ESE 6.9 mph - N/A   Partly Cloudy
8:58 AM 87.1 °F 86.7 °F 59.7 °F 40% 29.91 in 10.0 mi ESE 6.9 mph - N/A   Clear
9:58 AM 91.4 °F 90.1 °F 57.6 °F 32% 29.90 in 10.0 mi Variable 6.9 mph - N/A   Clear
10:58 AM 93.6 °F 92.7 °F 58.5 °F 31% 29.89 in 10.0 mi East 13.8 mph 20.7 mph N/A   Clear
11:58 AM 96.1 °F 95.2 °F 57.7 °F 28% 29.88 in 10.0 mi ESE 18.4 mph 27.6 mph N/A   Clear
12:24 PM 96.8 °F 95.8 °F 57.2 °F 27% 30.01 in 10.0 mi East 12.7 mph 23.0 mph N/A   Clear
12:58 PM 97.2 °F 96.4 °F 58.1 °F 27% 29.86 in 10.0 mi ESE 10.4 mph 25.3 mph N/A   Clear
1:50 PM 98.6 °F 97.6 °F 57.2 °F 25% 29.98 in 10.0 mi NNE 17.3 mph 19.6 mph N/A Thunderstorm Partly Cloudy
1:58 PM 97.2 °F 96.4 °F 57.6 °F 27% 29.83 in 10.0 mi NNE 17.3 mph 29.9 mph N/A Thunderstorm Partly Cloudy
2:30 PM 93.2 °F 92.6 °F 59.0 °F 32% 29.97 in 9.0 mi NNW 15.0 mph 23.0 mph N/A Thunderstorm Mostly Cloudy
2:48 PM 91.4 °F 90.7 °F 59.0 °F 34% 29.96 in 10.0 mi North 11.5 mph - N/A Thunderstorm Thunderstorm
2:58 PM 91.6 °F 90.7 °F 58.8 °F 33% 29.81 in 10.0 mi North 5.8 mph - N/A Thunderstorm Thunderstorm
3:03 PM 91.4 °F 90.7 °F 59.0 °F 34% 29.95 in 10.0 mi North 10.4 mph - N/A   Partly Cloudy
3:08 PM 91.4 °F 90.7 °F 59.0 °F 34% 29.95 in 10.0 mi NNE 12.7 mph - N/A Thunderstorm Thunderstorm
3:25 PM 95.0 °F 93.7 °F 57.2 °F 28% 29.94 in 10.0 mi North 10.4 mph 20.7 mph N/A Thunderstorm Clear
3:58 PM 93.9 °F 92.9 °F 57.9 °F 30% 29.80 in 10.0 mi WNW 5.8 mph - N/A   Scattered Clouds
4:58 PM 95.2 °F 93.9 °F 56.8 °F 28% 29.78 in 10.0 mi SE 6.9 mph - N/A   Partly Cloudy
5:58 PM 94.1 °F 93.1 °F 58.3 °F 30% 29.79 in 10.0 mi NNW 4.6 mph - N/A   Clear
6:58 PM 93.6 °F 92.4 °F 57.4 °F 30% 29.80 in 10.0 mi North 6.9 mph - N/A   Mostly Cloudy
7:58 PM 91.2 °F 91.1 °F 60.6 °F 36% 29.82 in 10.0 mi East 4.6 mph - N/A   Mostly Cloudy
8:58 PM 88.5 °F 88.1 °F 60.1 °F 38% 29.86 in 10.0 mi Calm Calm - N/A   Partly Cloudy
9:58 PM 87.3 °F 87.2 °F 61.2 °F 41% 29.86 in 10.0 mi WSW 3.5 mph - N/A   Partly Cloudy
10:58 PM 88.5 °F 87.8 °F 58.8 °F 37% 29.86 in 10.0 mi Variable 1.2 mph - N/A   Partly Cloudy
11:58 PM 87.1 °F 86.7 °F 59.7 °F 40% 29.87 in 10.0 mi SSE 11.5 mph - N/A   Mostly Cloudy